Location: Trois-Rivi�res
(46.3500°N, 72.5500°W)
Time: 08:52:02
(UTC-04:00)

OTV 5 (USA 277) - Pass Details

Date: 13 October 2017
Orbit: 404 x 417 km, 43.0° (Epoch: 07 September)

Event Time Altitude Azimuth Distance (km) Brightness Sun altitude
Rises 20:24:43 0° 260° (W) 2,354 ? -24.4°
Reaches altitude 10° 20:26:52 10° 254° (WSW) 1,491 ? -24.8°
Enters shadow 20:28:29 24° 242° (WSW) 897 ? -25.1°
